TimeCST,TemperatureF,Dew PointF,Humidity,Sea Level PressureIn,VisibilityMPH,Wind Direction,Wind SpeedMPH,Gust SpeedMPH,PrecipitationIn,Events,Conditions,WindDirDegrees,DateUTC
12:15 AM,48.2,48.2,100,29.79,2.0,WSW,10.4,-,N/A,,Overcast,250,2012-12-02 06:15:00
12:35 AM,48.2,48.2,100,29.80,2.0,WSW,11.5,-,N/A,,Overcast,250,2012-12-02 06:35:00
12:55 AM,48.2,48.2,100,29.79,2.5,WSW,8.1,-,N/A,,Overcast,250,2012-12-02 06:55:00
1:15 AM,48.2,48.2,100,29.80,2.5,West,9.2,-,N/A,,Overcast,260,2012-12-02 07:15:00
1:35 AM,48.2,46.4,93,29.80,3.0,West,8.1,-,N/A,,Overcast,270,2012-12-02 07:35:00
1:55 AM,48.2,46.4,93,29.81,3.0,West,8.1,-,N/A,,Overcast,270,2012-12-02 07:55:00
2:15 AM,48.2,46.4,93,29.82,3.0,West,6.9,-,N/A,,Overcast,270,2012-12-02 08:15:00
2:35 AM,48.2,46.4,93,29.82,3.0,West,6.9,-,N/A,,Overcast,280,2012-12-02 08:35:00
2:55 AM,48.2,46.4,93,29.82,3.0,West,5.8,-,N/A,,Overcast,280,2012-12-02 08:55:00
3:15 AM,48.2,46.4,93,29.82,3.0,WNW,8.1,-,N/A,,Overcast,290,2012-12-02 09:15:00
3:35 AM,46.4,44.6,93,29.83,3.0,WNW,6.9,-,N/A,,Overcast,300,2012-12-02 09:35:00
3:55 AM,46.4,44.6,93,29.82,4.0,West,4.6,-,N/A,,Overcast,270,2012-12-02 09:55:00
4:15 AM,46.4,44.6,93,29.82,3.0,WNW,3.5,-,N/A,,Overcast,300,2012-12-02 10:15:00
4:35 AM,46.4,44.6,93,29.82,3.0,WNW,3.5,-,N/A,,Overcast,290,2012-12-02 10:35:00
4:55 AM,46.4,44.6,93,29.84,3.0,WNW,5.8,-,N/A,,Overcast,290,2012-12-02 10:55:00
5:15 AM,46.4,42.8,87,29.85,3.0,WNW,6.9,-,N/A,,Overcast,290,2012-12-02 11:15:00
5:35 AM,44.6,42.8,93,29.85,3.0,WNW,6.9,-,N/A,,Overcast,300,2012-12-02 11:35:00
5:55 AM,44.6,42.8,93,29.86,2.5,WNW,5.8,-,N/A,,Overcast,290,2012-12-02 11:55:00
6:15 AM,44.6,42.8,93,29.87,2.0,NW,8.1,-,N/A,,Overcast,310,2012-12-02 12:15:00
6:35 AM,44.6,42.8,93,29.87,3.0,NW,6.9,-,N/A,,Overcast,310,2012-12-02 12:35:00
6:55 AM,44.6,42.8,93,29.88,3.0,NW,8.1,-,N/A,,Overcast,320,2012-12-02 12:55:00
7:15 AM,44.6,41.0,87,29.89,3.0,NW,8.1,-,N/A,,Overcast,320,2012-12-02 13:15:00
7:35 AM,44.6,41.0,87,29.90,3.0,NNW,5.8,-,N/A,,Overcast,330,2012-12-02 13:35:00
7:55 AM,44.6,41.0,87,29.90,2.5,NNW,6.9,-,N/A,,Overcast,340,2012-12-02 13:55:00
8:15 AM,44.6,41.0,87,29.91,2.5,NNW,5.8,-,N/A,,Overcast,330,2012-12-02 14:15:00
8:35 AM,42.8,41.0,93,29.93,2.5,NW,5.8,-,N/A,,Overcast,320,2012-12-02 14:35:00
8:55 AM,42.8,39.2,87,29.93,2.5,NNW,5.8,-,N/A,,Overcast,330,2012-12-02 14:55:00
9:15 AM,42.8,39.2,87,29.94,3.0,NNW,10.4,-,N/A,,Overcast,340,2012-12-02 15:15:00
9:35 AM,42.8,39.2,87,29.95,4.0,NNW,10.4,-,N/A,,Overcast,340,2012-12-02 15:35:00
9:55 AM,42.8,37.4,81,29.96,5.0,NNW,9.2,-,N/A,,Overcast,340,2012-12-02 15:55:00
10:15 AM,42.8,39.2,87,29.97,5.0,NNW,11.5,-,N/A,,Overcast,340,2012-12-02 16:15:00
10:35 AM,42.8,39.2,87,29.97,5.0,NNW,10.4,-,N/A,,Overcast,340,2012-12-02 16:35:00
10:55 AM,42.8,37.4,81,29.98,5.0,North,9.2,-,N/A,,Overcast,360,2012-12-02 16:55:00
11:15 AM,42.8,37.4,81,29.98,7.0,North,8.1,-,N/A,,Overcast,360,2012-12-02 17:15:00
11:35 AM,42.8,37.4,81,29.97,9.0,North,8.1,-,N/A,,Overcast,10,2012-12-02 17:35:00
11:55 AM,41.0,37.4,87,29.97,10.0,North,8.1,-,N/A,,Overcast,360,2012-12-02 17:55:00
12:15 PM,41.0,35.6,81,29.97,10.0,North,8.1,-,N/A,,Overcast,360,2012-12-02 18:15:00
12:35 PM,41.0,35.6,81,29.99,10.0,North,9.2,-,N/A,,Overcast,350,2012-12-02 18:35:00
12:55 PM,41.0,35.6,81,29.99,10.0,North,6.9,-,N/A,,Overcast,350,2012-12-02 18:55:00
1:15 PM,41.0,35.6,81,29.99,10.0,North,8.1,-,N/A,,Overcast,350,2012-12-02 19:15:00
1:35 PM,41.0,35.6,81,29.99,10.0,North,6.9,-,N/A,,Overcast,360,2012-12-02 19:35:00
1:55 PM,41.0,35.6,81,29.99,10.0,North,4.6,-,N/A,,Overcast,350,2012-12-02 19:55:00
2:15 PM,41.0,35.6,81,29.99,10.0,NNW,3.5,-,N/A,,Overcast,340,2012-12-02 20:15:00
2:35 PM,41.0,35.6,81,29.99,10.0,NNE,6.9,-,N/A,,Overcast,20,2012-12-02 20:35:00
3:15 PM,41.0,35.6,81,30.01,10.0,North,3.5,-,N/A,,Overcast,360,2012-12-02 21:15:00
3:35 PM,39.2,35.6,87,30.02,10.0,North,4.6,-,N/A,,Overcast,10,2012-12-02 21:35:00
3:55 PM,39.2,35.6,87,30.03,10.0,North,3.5,-,N/A,,Overcast,360,2012-12-02 21:55:00
4:15 PM,39.2,35.6,87,30.03,10.0,Calm,Calm,-,N/A,,Overcast,0,2012-12-02 22:15:00
4:35 PM,39.2,35.6,87,30.04,10.0,Calm,Calm,-,N/A,,Overcast,0,2012-12-02 22:35:00
4:55 PM,39.2,35.6,87,30.04,10.0,Calm,Calm,-,N/A,,Overcast,0,2012-12-02 22:55:00
5:15 PM,39.2,35.6,87,30.05,10.0,Calm,Calm,-,N/A,,Overcast,0,2012-12-02 23:15:00
5:35 PM,39.2,33.8,81,30.06,10.0,SW,3.5,-,N/A,,Overcast,230,2012-12-02 23:35:00
6:15 PM,39.2,35.6,87,30.06,10.0,Calm,Calm,-,N/A,,Overcast,0,2012-12-03 00:15:00
6:35 PM,39.2,35.6,87,30.06,10.0,SW,4.6,-,N/A,,Overcast,220,2012-12-03 00:35:00
6:55 PM,39.2,35.6,87,30.06,10.0,South,3.5,-,N/A,,Overcast,180,2012-12-03 00:55:00
7:15 PM,39.2,35.6,87,30.06,10.0,South,5.8,-,N/A,,Overcast,180,2012-12-03 01:15:00
7:35 PM,39.2,35.6,87,30.06,10.0,South,3.5,-,N/A,,Overcast,190,2012-12-03 01:35:00
7:55 PM,39.2,35.6,87,30.06,10.0,SSE,3.5,-,N/A,,Overcast,150,2012-12-03 01:55:00
8:15 PM,39.2,35.6,87,30.06,10.0,SSE,5.8,-,N/A,,Overcast,150,2012-12-03 02:15:00
8:35 PM,39.2,35.6,87,30.06,10.0,SE,5.8,-,N/A,,Overcast,140,2012-12-03 02:35:00
8:55 PM,39.2,35.6,87,30.06,10.0,SSE,6.9,-,N/A,,Overcast,160,2012-12-03 02:55:00
9:15 PM,39.2,35.6,87,30.06,10.0,SSE,5.8,-,N/A,,Overcast,150,2012-12-03 03:15:00
9:35 PM,39.2,35.6,87,30.07,10.0,SSE,6.9,-,N/A,,Overcast,160,2012-12-03 03:35:00
9:55 PM,39.2,35.6,87,30.07,10.0,South,5.8,-,N/A,,Overcast,170,2012-12-03 03:55:00
10:15 PM,39.2,35.6,87,30.06,10.0,SSE,8.1,-,N/A,,Overcast,160,2012-12-03 04:15:00
10:35 PM,39.2,35.6,87,30.06,10.0,SSE,6.9,-,N/A,,Overcast,160,2012-12-03 04:35:00
10:55 PM,39.2,35.6,87,30.06,10.0,South,5.8,-,N/A,,Overcast,170,2012-12-03 04:55:00
11:15 PM,41.0,35.6,81,30.06,10.0,South,6.9,-,N/A,,Overcast,180,2012-12-03 05:15:00
11:35 PM,41.0,35.6,81,30.06,10.0,SSE,5.8,-,N/A,,Overcast,160,2012-12-03 05:35:00
11:55 PM,41.0,37.4,87,30.05,10.0,SSE,5.8,-,N/A,,Overcast,160,2012-12-03 05:55:00